FW7071 Weather Reports


Display with metric or nautical units.
time (UTC)temp
F
wind
direction
speed
MPH
gust
MPH
rain 1hr
in
rain 24hr
in
rain mn
in
humidity
%
barometer
mb
20200710120223 75 143 0.0 0.0 0.00 0.00 0.00 95 1014.3
20200710115721 74 189 0.0 0.0 0.00 0.00 0.00 95 1014.3
20200710115219 74 169 0.0 0.0 0.00 0.00 0.00 95 1014.3
20200710114715 74 167 0.0 0.0 0.00 0.00 0.00 95 1014.3
20200710114212 74 88 0.0 1.0 0.00 0.00 0.00 95 1014.4
20200710113711 74 169 0.0 0.0 0.00 0.00 0.00 96 1014.7
20200710113211 74 163 0.0 0.0 0.00 0.00 0.00 96 1014.6
20200710112710 74 172 0.0 0.0 0.00 0.00 0.00 96 1014.8
20200710112207 74 124 0.0 1.0 0.00 0.00 0.00 96 1014.7
20200710111704 74 178 0.0 0.0 0.00 0.00 0.00 96 1014.7
20200710111203 74 124 0.0 0.0 0.00 0.00 0.00 96 1014.9
20200710110701 74 170 0.0 0.0 0.00 0.00 0.00 96 1014.8
20200710110157 74 104 1.0 1.0 0.00 0.00 0.00 96 1015.0
20200710105652 73 143 0.0 1.0 0.00 0.00 0.00 96 1014.9
20200710105148 73 139 1.0 1.0 0.00 0.00 0.00 96 1014.9
20200710104644 73 86 1.0 1.0 0.00 0.00 0.00 96 1015.0
20200710104142 73 179 0.0 0.0 0.00 0.00 0.00 96 1014.7
20200710103640 73 136 0.0 1.0 0.00 0.00 0.00 96 1014.6
20200710103140 73 112 0.0 1.0 0.00 0.00 0.00 96 1014.4
20200710102638 73 86 0.0 1.0 0.00 0.00 0.00 96 1014.5
20200710102133 73 119 1.0 1.0 0.00 0.00 0.00 97 1014.9
20200710101632 73 143 0.0 0.0 0.00 0.00 0.00 97 1014.7
20200710101128 73 118 1.0 1.0 0.00 0.00 0.00 97 1014.3
20200710100625 73 145 0.0 1.0 0.00 0.00 0.00 97 1014.6
20200710100122 73 91 0.0 1.0 0.00 0.00 0.00 97 1014.7
20200710095622 73 138 0.0 1.0 0.00 0.00 0.00 97 1015.1
20200710095116 73 156 0.0 0.0 0.00 0.00 0.00 98 1015.2
20200710094612 72 149 0.0 0.0 0.00 0.00 0.00 98 1015.2
20200710094110 72 89 1.0 1.0 0.00 0.00 0.00 98 1015.1
20200710093609 72 147 0.0 1.0 0.00 0.00 0.00 98 1015.1
20200710093104 72 78 0.0 0.0 0.00 0.00 0.00 98 1015.0
20200710092558 72 133 0.0 1.0 0.00 0.00 0.00 98 1015.2
20200710092057 72 138 0.0 0.0 0.00 0.00 0.00 98 1015.1
20200710091556 72 114 0.0 0.0 0.00 0.00 0.00 98 1015.1
20200710091050 72 172 0.0 0.0 0.00 0.00 0.00 98 1015.2
20200710090547 72 133 0.0 1.0 0.00 0.00 0.00 98 1015.2
20200710090045 72 105 0.0 1.0 0.00 0.00 0.00 98 1015.3
20200710085543 72 147 0.0 0.0 0.00 0.00 0.00 98 1015.3
20200710085041 72 141 0.0 0.0 0.00 0.00 0.00 98 1015.3
20200710084539 72 148 0.0 0.0 0.00 0.00 0.00 98 1015.4
20200710084035 72 134 0.0 0.0 0.00 0.00 0.00 98 1015.2
20200710083531 72 154 0.0 0.0 0.00 0.00 0.00 97 1015.3
20200710083027 73 152 0.0 0.0 0.00 0.00 0.00 97 1015.3
20200710082524 73 135 0.0 0.0 0.00 0.00 0.00 97 1015.3
20200710082019 73 120 0.0 1.0 0.00 0.00 0.00 97 1015.5
20200710081517 73 158 0.0 0.0 0.00 0.00 0.00 97 1015.8
20200710081011 73 153 0.0 0.0 0.00 0.00 0.00 97 1015.7
20200710080510 73 152 0.0 0.0 0.00 0.00 0.00 97 1015.7
20200710080005 73 167 0.0 0.0 0.00 0.00 0.00 97 1016.1
20200710075504 73 170 0.0 0.0 0.00 0.00 0.00 97 1015.9
20200710074959 73 162 0.0 0.0 0.00 0.00 0.00 97 1016.0
20200710074456 72 162 0.0 0.0 0.00 0.00 0.00 97 1015.9
20200710073952 73 166 0.0 0.0 0.00 0.00 0.00 97 1015.9
20200710073450 72 168 0.0 0.0 0.00 0.00 0.00 98 1016.0
20200710072949 72 175 0.0 0.0 0.00 0.00 0.00 98 1016.0
20200710072444 72 150 0.0 0.0 0.00 0.00 0.00 98 1016.0
20200710071944 72 161 0.0 1.0 0.00 0.00 0.00 98 1016.1
20200710071440 72 144 0.0 0.0 0.00 0.00 0.00 98 1016.2
20200710070935 72 154 0.0 0.0 0.00 0.00 0.00 98 1016.2
20200710070432 72 154 0.0 0.0 0.00 0.00 0.00 98 1016.4
20200710065927 72 155 0.0 0.0 0.00 0.00 0.00 99 1016.4
20200710065425 72 172 0.0 0.0 0.00 0.00 0.00 99 1016.4
20200710064923 72 155 0.0 0.0 0.00 0.00 0.00 98 1016.3
20200710064419 72 156 0.0 0.0 0.00 0.00 0.00 98 1016.2
20200710063916 72 163 0.0 0.0 0.00 0.00 0.00 98 1016.1
20200710063415 72 163 0.0 0.0 0.00 0.00 0.00 98 1016.4
20200710062911 71 163 0.0 0.0 0.00 0.00 0.00 98 1016.4
20200710062410 71 163 0.0 0.0 0.00 0.00 0.00 98 1016.3
20200710061908 72 163 0.0 0.0 0.00 0.00 0.00 98 1016.3
20200710061406 72 201 0.0 0.0 0.00 0.00 0.00 98 1016.3
20200710060905 72 166 0.0 0.0 0.00 0.00 0.00 97 1016.5
20200710060404 72 167 0.0 0.0 0.00 0.00 0.00 97 1016.6
20200710055859 72 152 0.0 0.0 0.00 0.00 0.00 97 1016.5
20200710055358 72 175 0.0 0.0 0.00 0.00 0.00 97 1016.6
20200710054853 72 107 0.0 0.0 0.00 0.00 0.00 97 1016.7
20200710054345 72 161 0.0 0.0 0.00 0.00 0.00 97 1016.8
20200710053839 72 161 0.0 0.0 0.00 0.00 0.00 97 1016.7
20200710053334 72 154 0.0 0.0 0.00 0.00 0.00 96 1016.4
20200710052829 72 138 0.0 0.0 0.00 0.00 0.00 96 1016.5
20200710052326 72 167 0.0 0.0 0.00 0.00 0.00 96 1016.5
20200710051825 72 167 0.0 0.0 0.00 0.00 0.00 96 1016.6
20200710051317 73 167 0.0 0.0 0.00 0.00 0.00 95 1016.4
20200710050817 73 165 0.0 0.0 0.00 0.00 0.00 95 1016.5
20200710050312 73 165 0.0 0.0 0.00 0.00 0.00 94 1016.6
20200710045805 73 164 0.0 0.0 0.00 0.00 0.00 94 1016.6
20200710045305 73 164 0.0 0.0 0.00 0.00 0.00 93 1016.8
20200710044804 74 164 0.0 0.0 0.00 0.00 0.00 93 1016.7
20200710044302 74 164 0.0 0.0 0.00 0.00 0.00 92 1016.3
20200710043759 75 163 0.0 0.0 0.00 0.00 0.00 91 1016.6
20200710043257 75 158 0.0 0.0 0.00 0.00 0.00 90 1016.4
20200710042752 75 151 0.0 0.0 0.00 0.00 0.00 90 1016.5
20200710042252 75 77 1.0 1.0 0.00 0.00 0.00 89 1016.6
20200710041747 75 155 0.0 0.0 0.00 0.00 0.00 89 1016.6
20200710041244 75 132 1.0 2.0 0.00 0.00 0.00 89 1016.6
20200710040739 76 141 0.0 0.0 0.00 0.00 0.00 88 1016.4
20200710040236 76 161 0.0 0.0 0.00 0.00 0.00 87 1016.4
20200710035732 76 100 1.0 1.0 0.00 0.01 0.01 86 1016.4
20200710035228 76 126 1.0 1.0 0.00 0.01 0.01 87 1016.2
20200710034726 76 157 0.0 0.0 0.00 0.01 0.01 87 1016.3
20200710034226 76 146 0.0 0.0 0.00 0.01 0.01 86 1016.3
20200710033721 76 158 0.0 0.0 0.00 0.01 0.01 86 1016.2
20200710033221 77 157 0.0 0.0 0.00 0.01 0.01 84 1015.9
20200710032716 77 139 0.0 0.0 0.00 0.01 0.01 84 1016.1
20200710032212 77 135 0.0 0.0 0.00 0.01 0.01 83 1015.7
20200710031707 77 135 0.0 0.0 0.00 0.01 0.01 82 1016.0
20200710031205 78 131 0.0 0.0 0.00 0.01 0.01 82 1015.8
20200710030703 77 140 0.0 0.0 0.00 0.01 0.01 82 1016.1
20200710030201 78 160 0.0 0.0 0.00 0.01 0.01 82 1015.8
20200710025654 78 82 2.0 2.0 0.00 0.01 0.01 81 1016.0
20200710025152 78 163 0.0 0.0 0.00 0.01 0.01 81 1015.8
20200710024649 78 162 0.0 0.0 0.00 0.01 0.01 80 1015.9
20200710024148 79 159 0.0 0.0 0.00 0.01 0.01 79 1016.1
20200710023645 79 119 1.0 1.0 0.00 0.01 0.01 78 1016.1
20200710023143 79 101 0.0 1.0 0.00 0.01 0.01 78 1016.0
20200710022641 79 175 0.0 0.0 0.00 0.01 0.01 78 1015.8
20200710022137 79 145 1.0 1.0 0.00 0.01 0.01 79 1015.9
20200710021637 79 130 0.0 1.0 0.00 0.01 0.01 78 1015.9
20200710021136 79 119 0.0 0.0 0.00 0.01 0.01 78 1015.9
20200710020632 79 169 0.0 0.0 0.00 0.01 0.01 78 1016.3
20200710020131 79 159 0.0 0.0 0.00 0.01 0.01 78 1015.9
20200710015630 79 148 0.0 0.0 0.00 0.01 0.01 78 1015.9
20200710015128 79 161 0.0 0.0 0.00 0.01 0.01 78 1015.7
20200710014621 79 163 0.0 0.0 0.00 0.01 0.01 77 1015.5
20200710014118 79 159 0.0 0.0 0.00 0.01 0.01 77 1015.5
20200710013615 79 156 0.0 0.0 0.00 0.01 0.01 77 1015.8
20200710013115 80 162 0.0 0.0 0.00 0.01 0.01 77 1015.7
20200710012612 80 158 0.0 0.0 0.00 0.01 0.01 76 1015.7
20200710012107 80 160 0.0 0.0 0.00 0.01 0.01 77 1015.7
20200710011603 80 165 0.0 0.0 0.00 0.01 0.01 77 1015.5
20200710011101 80 159 0.0 0.0 0.00 0.01 0.01 77 1015.4
20200710010556 80 159 0.0 0.0 0.00 0.01 0.01 77 1015.3
20200710010054 81 159 0.0 0.0 0.00 0.01 0.01 74 1015.5
20200710005552 82 159 0.0 0.0 0.00 0.01 0.01 72 1015.5
20200710005049 82 134 0.0 0.0 0.00 0.01 0.01 71 1015.4
20200710004544 82 162 0.0 0.0 0.00 0.01 0.01 71 1015.7
20200710004042 83 174 0.0 0.0 0.00 0.01 0.01 71 1015.5
20200710003539 83 176 0.0 0.0 0.00 0.01 0.01 69 1015.5
20200710003037 83 159 1.0 1.0 0.00 0.01 0.01 69 1015.8
20200710002536 83 122 0.0 0.0 0.00 0.01 0.01 69 1015.8
20200710002033 84 175 0.0 1.0 0.00 0.01 0.01 68 1015.5
20200710001532 84 164 0.0 0.0 0.00 0.01 0.01 67 1015.5
20200710001027 84 106 1.0 1.0 0.00 0.01 0.01 66 1015.4
20200710000526 85 173 0.0 0.0 0.00 0.01 0.01 66 1015.7
20200710000022 85 167 0.0 0.0 0.00 0.01 0.01 65 1015.7
20200709235520 86 111 0.0 0.0 0.00 0.01 0.01 65 1015.5
20200709235021 87 253 0.0 1.0 0.00 0.01 0.01 63 1015.3
20200709234516 87 174 0.0 0.0 0.00 0.01 0.01 62 1015.3
20200709234012 87 157 1.0 2.0 0.00 0.01 0.01 62 1015.0
20200709233511 88 249 1.0 1.0 0.00 0.01 0.01 61 1015.3
20200709233007 88 158 1.0 1.0 0.00 0.01 0.01 60 1015.3
20200709232505 87 251 0.0 0.0 0.00 0.01 0.01 60 1015.2
20200709232002 87 164 2.0 2.0 0.00 0.01 0.01 61 1015.0
20200709231501 88 152 1.0 2.0 0.00 0.01 0.01 61 1015.4
20200709230958 88 106 3.0 5.0 0.00 0.01 0.01 58 1015.3
20200709230453 89 330 0.0 1.0 0.00 0.01 0.01 59 1015.3
20200709225950 90 159 1.0 2.0 0.00 0.01 0.01 58 1015.4
20200709225446 89 247 0.0 1.0 0.00 0.01 0.01 54 1015.5
20200709224942 90 223 0.0 0.0 0.00 0.01 0.01 56 1015.4
20200709224440 90 275 4.0 5.0 0.00 0.01 0.01 51 1015.4
20200709223934 90 223 0.0 0.0 0.00 0.01 0.01 51 1015.4
20200709223431 90 54 1.0 1.0 0.00 0.01 0.01 49 1015.4
20200709222925 91 179 0.0 0.0 0.00 0.01 0.01 52 1015.2
20200709222421 91 241 0.0 0.0 0.00 0.01 0.01 49 1015.4
20200709221918 90 259 1.0 1.0 0.00 0.01 0.01 48 1015.5
20200709221415 91 163 1.0 1.0 0.00 0.01 0.01 48 1015.4
20200709220909 91 227 0.0 0.0 0.00 0.01 0.01 51 1015.3
20200709220409 91 141 1.0 1.0 0.00 0.01 0.01 46 1015.3
20200709215907 91 248 0.0 1.0 0.00 0.01 0.01 49 1015.7
20200709215403 91 72 2.0 2.0 0.00 0.01 0.01 46 1015.3
20200709214903 93 333 0.0 1.0 0.00 0.01 0.01 45 1015.4
20200709214358 91 317 0.0 1.0 0.00 0.01 0.01 46 1015.5
20200709213856 92 208 2.0 2.0 0.00 0.01 0.01 44 1015.4
20200709213354 91 273 1.0 1.0 0.00 0.01 0.01 45 1015.0
20200709212853 92 212 1.0 2.0 0.00 0.01 0.01 46 1015.4
20200709212350 91 194 1.0 1.0 0.00 0.01 0.01 44 1015.7
20200709211846 92 242 1.0 1.0 0.00 0.01 0.01 47 1015.3
20200709211345 92 304 1.0 1.0 0.00 0.01 0.01 45 1015.7
20200709210843 92 289 1.0 2.0 0.00 0.01 0.01 51 1015.8
20200709210343 92 254 1.0 1.0 0.00 0.01 0.01 48 1015.8
20200709205840 91 13 0.0 1.0 0.00 0.01 0.01 45 1015.7
20200709205339 93 36 1.0 3.0 0.00 0.01 0.01 45 1015.8
20200709204835 92 237 1.0 1.0 0.00 0.01 0.01 46 1015.5
20200709204331 92 264 1.0 1.0 0.00 0.01 0.01 46 1015.8
20200709203827 93 247 0.0 0.0 0.00 0.01 0.01 46 1016.0
20200709203323 91 209 0.0 1.0 0.00 0.01 0.01 53 1015.8
20200709202821 91 199 1.0 1.0 0.00 0.01 0.01 49 1016.1
20200709202314 91 239 2.0 2.0 0.00 0.01 0.01 51 1015.9
20200709201814 91 250 1.0 2.0 0.00 0.01 0.01 53 1016.2
20200709201310 90 167 0.0 0.0 0.00 0.01 0.01 50 1016.2
20200709200805 90 57 1.0 2.0 0.00 0.01 0.01 53 1016.0
20200709200303 91 259 2.0 3.0 0.00 0.01 0.01 52 1015.9
20200709195801 90 230 0.0 1.0 0.00 0.01 0.01 54 1015.7
20200709195259 89 190 0.0 1.0 0.00 0.01 0.01 54 1016.0
20200709194754 90 198 1.0 1.0 0.00 0.01 0.01 53 1016.2
20200709194253 89 84 1.0 1.0 0.00 0.01 0.01 56 1016.3
20200709193750 91 229 0.0 1.0 0.00 0.01 0.01 55 1016.4
20200709193247 91 262 0.0 1.0 0.00 0.01 0.01 52 1016.5
20200709192747 91 232 1.0 1.0 0.00 0.01 0.01 51 1016.4
20200709192247 91 194 0.0 0.0 0.00 0.01 0.01 51 1016.5
20200709191745 89 181 0.0 0.0 0.00 0.01 0.01 55 1016.4
20200709191242 90 184 0.0 1.0 0.00 0.01 0.01 56 1016.5
20200709190738 89 238 0.0 1.0 0.00 0.01 0.01 57 1016.5
20200709190233 89 209 1.0 2.0 0.00 0.01 0.01 58 1016.7
20200709185728 89 94 3.0 3.0 0.00 0.01 0.01 51 1016.7
20200709185227 87 216 2.0 2.0 0.00 0.01 0.01 56 1016.6
20200709184725 89 172 1.0 1.0 0.00 0.01 0.01 57 1016.8
20200709184223 91 236 1.0 1.0 0.00 0.01 0.01 55 1016.7
20200709183719 89 197 3.0 5.0 0.00 0.01 0.01 58 1016.8
20200709183215 88 176 1.0 1.0 0.00 0.01 0.01 63 1016.6
20200709182714 88 229 0.0 0.0 0.00 0.01 0.01 66 1016.8
20200709182211 88 233 1.0 1.0 0.00 0.01 0.01 64 1016.9
20200709181707 89 233 0.0 0.0 0.00 0.01 0.01 63 1016.9
20200709181202 89 234 1.0 2.0 0.00 0.01 0.01 62 1017.0
20200709180659 90 156 0.0 1.0 0.00 0.01 0.01 62 1016.7
20200709180156 89 196 1.0 2.0 0.00 0.01 0.01 60 1016.7
20200709175653 87 171 0.0 0.0 0.00 0.01 0.01 62 1017.0
20200709175148 87 83 0.0 1.0 0.00 0.01 0.01 66 1017.1
20200709174647 88 67 1.0 2.0 0.00 0.01 0.01 63 1016.8
20200709174141 88 147 1.0 2.0 0.00 0.01 0.01 61 1017.2
20200709173640 88 136 3.0 3.0 0.00 0.01 0.01 64 1017.0
20200709173136 89 43 1.0 1.0 0.00 0.01 0.01 65 1016.9
20200709172635 88 148 1.0 2.0 0.00 0.01 0.01 66 1017.2
20200709172134 87 166 0.0 0.0 0.00 0.01 0.01 67 1017.0
20200709171631 86 138 1.0 1.0 0.00 0.01 0.01 70 1017.2
20200709171127 86 142 1.0 2.0 0.00 0.01 0.01 68 1017.0
20200709170623 86 164 0.0 0.0 0.00 0.01 0.01 70 1017.2
20200709170119 85 215 0.0 0.0 0.00 0.01 0.01 72 1017.2
20200709165618 86 110 0.0 1.0 0.00 0.01 0.01 71 1017.4
20200709165116 87 51 2.0 3.0 0.00 0.01 0.01 68 1017.4
20200709164614 86 211 0.0 1.0 0.00 0.01 0.01 70 1017.4
20200709164110 87 158 1.0 1.0 0.00 0.01 0.01 68 1017.4
20200709163606 87 158 1.0 1.0 0.00 0.01 0.01 71 1017.7
20200709163106 87 176 1.0 2.0 0.00 0.01 0.01 71 1017.6
20200709162605 86 135 1.0 1.0 0.00 0.01 0.01 74 1017.4
20200709162104 84 154 1.0 1.0 0.00 0.01 0.01 76 1017.5
20200709161558 84 185 0.0 0.0 0.00 0.01 0.01 75 1017.7
20200709161056 83 156 0.0 0.0 0.00 0.01 0.01 77 1017.8
20200709160553 84 283 2.0 2.0 0.00 0.01 0.01 77 1017.7
20200709160053 85 150 0.0 0.0 0.00 0.01 0.01 78 1017.8
20200709155551 85 128 1.0 1.0 0.00 0.01 0.01 78 1017.7
20200709155049 84 145 0.0 1.0 0.00 0.01 0.01 78 1017.9
20200709154542 84 117 1.0 1.0 0.00 0.01 0.01 78 1017.7
20200709154040 83 106 0.0 1.0 0.00 0.01 0.01 81 1017.6
20200709153539 83 100 1.0 1.0 0.00 0.01 0.01 83 1018.0
20200709153032 82 97 0.0 0.0 0.00 0.01 0.01 82 1017.8
20200709152527 82 168 1.0 2.0 0.00 0.01 0.01 81 1017.6
20200709152024 84 142 0.0 0.0 0.00 0.01 0.01 80 1017.6
20200709151522 83 167 0.0 0.0 0.00 0.01 0.01 80 1017.6
20200709151020 83 77 1.0 1.0 0.00 0.01 0.01 80 1017.6
20200709150515 82 140 0.0 1.0 0.00 0.01 0.01 82 1017.5
20200709150015 82 129 2.0 2.0 0.00 0.01 0.01 83 1017.8
20200709145510 82 144 0.0 0.0 0.00 0.01 0.01 83 1017.7
20200709145010 82 125 0.0 1.0 0.00 0.01 0.01 84 1017.5
20200709144507 80 134 0.0 0.0 0.00 0.01 0.01 86 1018.0
20200709144007 80 145 0.0 1.0 0.00 0.01 0.01 87 1018.0
20200709143504 80 136 1.0 1.0 0.00 0.01 0.01 87 1017.7
20200709143002 80 135 1.0 1.0 0.00 0.01 0.01 87 1018.0
20200709142457 80 152 0.0 0.0 0.00 0.01 0.01 88 1018.1
20200709141955 80 144 1.0 1.0 0.00 0.01 0.01 88 1017.7
20200709141454 80 216 0.0 0.0 0.00 0.01 0.01 87 1017.9
20200709140952 79 143 0.0 0.0 0.00 0.01 0.01 89 1017.9
20200709140452 79 122 1.0 1.0 0.00 0.01 0.01 89 1018.3
20200709135949 78 192 0.0 0.0 0.00 0.01 0.01 89 1018.1
20200709135446 78 167 0.0 0.0 0.00 0.01 0.01 90 1018.2
20200709134942 78 192 0.0 0.0 0.00 0.01 0.01 90 1018.2
20200709134442 78 157 0.0 0.0 0.00 0.01 0.01 90 1017.9
20200709133938 78 209 0.0 1.0 0.00 0.01 0.01 90 1018.1
20200709133438 77 180 0.0 0.0 0.00 0.01 0.01 91 1017.9
20200709132936 77 189 0.0 0.0 0.00 0.01 0.01 92 1018.1
20200709132432 77 211 1.0 1.0 0.00 0.01 0.01 92 1017.9
20200709131929 77 165 1.0 1.0 0.00 0.01 0.01 92 1018.1
20200709131428 78 185 0.0 0.0 0.00 0.01 0.01 93 1018.1
20200709130925 77 175 0.0 0.0 0.00 0.01 0.01 92 1017.9
20200709130421 77 177 2.0 2.0 0.00 0.01 0.01 92 1017.7
20200709125920 77 169 0.0 0.0 0.00 0.01 0.01 93 1018.2
20200709125415 76 145 0.0 0.0 0.00 0.01 0.01 95 1017.9
20200709124911 75 219 0.0 0.0 0.00 0.01 0.01 96 1017.9
20200709124406 75 139 0.0 0.0 0.00 0.01 0.01 97 1018.0
20200709123902 75 179 0.0 0.0 0.00 0.01 0.01 99 1017.9
20200709123357 75 173 0.0 0.0 0.00 0.01 0.01 99 1017.7
20200709122855 74 168 0.0 0.0 0.00 0.01 0.01 99 1017.8
20200709122349 75 165 0.0 0.0 0.00 0.01 0.01 99 1017.7
20200709121849 75 123 0.0 0.0 0.00 0.01 0.01 99 1017.7
20200709121346 75 136 0.0 0.0 0.00 0.01 0.01 99 1017.7
20200709120844 74 131 0.0 0.0 0.00 0.01 0.01 99 1017.6